Location: 98498
(47.1644°N, 122.5620°W)
Time: 20:36:04
(UTC-08:00)

ISS - Visible Passes

Search period start: 11 December 2017 00:00
Search period end: 21 December 2017 00:00
Orbit: 403 x 407 km, 51.6° (Epoch: 12 December)

Date Brightness Start Highest point End Pass type
(mag) Time Alt. Az. Time Alt. Az. Time Alt. Az.
11 Dec -3.1 16:52:22 10° WNW 16:55:30 39° N 16:58:37 10° E visible
11 Dec -3.5 18:28:53 10° WNW 18:31:52 66° W 18:31:52 66° W visible
12 Dec -3.9 17:36:40 10° WNW 17:39:58 72° NNE 17:42:09 19° ESE visible
12 Dec -0.9 19:13:33 10° W 19:14:51 17° WSW 19:14:51 17° WSW visible
13 Dec -2.5 18:21:03 10° WNW 18:24:08 37° SW 18:25:20 26° S visible
14 Dec -3.4 17:28:43 10° WNW 17:31:59 63° SSW 17:35:13 10° SE visible
14 Dec -0.6 19:06:58 10° WSW 19:07:54 11° SW 19:08:50 10° SSW visible
15 Dec -1.1 18:13:30 10° W 18:15:54 19° SW 18:18:17 10° S visible
16 Dec -1.8 17:20:51 10° W 17:23:49 31° SW 17:26:46 10° SSE visible
18 Dec -0.6 17:13:25 10° W 17:15:29 16° SW 17:17:31 10° S visible
